20050713,000029,1222335,34.273332,-120.043725,16.433,33.711,0.662,0.826
20050713,000059,1222365,34.273260,-120.043973,16.402,33.711,0.662,0.831
20050713,000129,1222395,34.273175,-120.044233,16.436,33.672,0.662,0.830
20050713,000159,1222425,34.273127,-120.044473,16.458,33.667,0.684,0.856
20050713,000229,1222454,34.273038,-120.044660,16.482,33.670,0.667,0.818
20050713,000259,1222485,34.272992,-120.044847,16.494,33.677,0.673,0.827
20050713,000330,1222515,34.272922,-120.045010,16.503,33.677,0.717,0.902
20050713,000400,1222545,34.272870,-120.045155,16.503,33.684,0.706,0.883
20050713,000430,1222576,34.272827,-120.045288,16.495,33.692,0.700,0.875
20050713,000500,1222606,34.272805,-120.045408,16.485,33.696,0.684,0.849
20050713,000530,1222636,34.272768,-120.045513,16.458,33.706,0.673,0.830
20050713,000559,1222665,34.272743,-120.045617,16.455,33.693,0.706,0.884
20050713,000630,1222695,34.272690,-120.045703,16.484,33.671,0.667,0.815
20050713,000700,1222725,34.272658,-120.045790,16.505,33.674,0.678,0.833
20050713,000730,1222756,34.272615,-120.045857,16.515,33.675,0.667,0.817
20050713,000800,1222786,34.272573,-120.045917,16.524,33.677,0.689,0.862
20050713,000830,1222816,34.272513,-120.045955,16.540,33.676,0.684,0.853
20050713,000900,1222845,34.272448,-120.046007,16.554,33.674,0.744,0.954
20050713,000930,1222875,34.272385,-120.046102,16.558,33.679,0.728,0.927
20050713,001001,1222907,34.272310,-120.046208,16.569,33.677,0.782,1.029
20050713,001030,1222936,34.272285,-120.046337,16.576,33.681,0.749,0.967
20050713,001100,1222966,34.272262,-120.046477,16.574,33.687,0.809,1.079
20050713,001130,1222996,34.272248,-120.046630,16.574,33.687,0.782,1.032
20050713,001200,1223025,34.272235,-120.046802,16.571,33.687,0.744,0.965
20050713,001231,1223057,34.272198,-120.046960,16.560,33.690,0.717,0.921
20050713,001301,1223087,34.272185,-120.047123,16.544,33.696,0.728,0.951
20050713,001330,1223116,34.272120,-120.047213,16.543,33.687,0.711,0.928
20050713,001400,1223146,34.272083,-120.047302,16.559,33.679,0.755,1.006
20050713,001431,1223177,34.272058,-120.047382,16.572,33.678,0.744,0.981
20050713,001500,1223205,34.271998,-120.047433,16.575,33.684,0.744,0.976
20050713,001530,1223236,34.271943,-120.047472,16.590,33.673,0.804,1.079
20050713,001600,1223266,34.271913,-120.047517,16.601,33.676,0.804,1.081
20050713,001630,1223296,34.271870,-120.047537,16.585,33.693,0.782,1.041
20050713,001700,1223326,34.271832,-120.047535,16.585,33.686,0.782,1.035
20050713,001730,1223355,34.271793,-120.047525,16.584,33.687,0.766,0.997
20050713,001800,1223385,34.271758,-120.047483,16.590,33.681,0.771,1.005
20050713,001830,1223416,34.271728,-120.047478,16.585,33.693,0.738,0.944
20050713,001900,1223446,34.271698,-120.047440,16.564,33.697,0.722,0.917
20050713,001930,1223476,34.271675,-120.047413,16.548,33.698,0.755,0.972
20050713,002000,1223506,34.271667,-120.047365,16.540,33.694,0.717,0.898
20050713,002030,1223535,34.271655,-120.047283,16.533,33.696,0.728,0.920
20050713,002100,1223565,34.271652,-120.047282,16.531,33.689,0.706,0.889
20050713,002130,1223596,34.271638,-120.047220,16.531,33.689,0.744,0.967
20050713,002200,1223626,34.271618,-120.047170,16.526,33.687,0.711,0.920
20050713,002230,1223656,34.271610,-120.047090,16.522,33.692,0.695,0.888
20050713,002300,1223685,34.271657,-120.047047,16.509,33.694,0.711,0.900
20050713,002330,1223715,34.271652,-120.046980,16.513,33.682,0.728,0.918
20050713,002400,1223746,34.271633,-120.046925,16.529,33.674,0.722,0.905
20050713,002430,1223776,34.271550,-120.046850,16.547,33.672,0.706,0.873
20050713,002500,1223806,34.271440,-120.046873,16.541,33.684,0.755,0.959
20050713,002531,1223837,34.271328,-120.046943,16.509,33.703,0.733,0.921
20050713,002600,1223865,34.271225,-120.047052,16.493,33.702,0.738,0.938
20050713,002630,1223895,34.271188,-120.047158,16.517,33.673,0.782,1.024
20050713,002700,1223926,34.271157,-120.047247,16.530,33.674,0.738,0.945
20050713,002730,1223956,34.271158,-120.047327,16.543,33.671,0.760,0.981
20050713,002800,1223986,34.271152,-120.047390,16.546,33.675,0.749,0.965
20050713,002831,1224017,34.271163,-120.047435,16.533,33.688,0.717,0.906
20050713,002900,1224045,34.271195,-120.047468,16.543,33.680,0.738,0.937
20050713,002930,1224075,34.271212,-120.047500,16.548,33.682,0.766,0.990
20050713,003000,1224106,34.271242,-120.047515,16.556,33.679,0.793,1.046
20050713,003030,1224136,34.271272,-120.047520,16.563,33.676,0.793,1.050
20050713,003100,1224166,34.271293,-120.047532,16.581,33.669,0.793,1.045
20050713,003131,1224197,34.271330,-120.047578,16.582,33.680,0.749,0.957
20050713,003200,1224225,34.271385,-120.047678,16.592,33.675,0.809,1.061
20050713,003230,1224256,34.271413,-120.047802,16.590,33.682,0.782,1.000
20050713,003300,1224286,34.271400,-120.047962,16.592,33.682,0.798,1.031
20050713,003331,1224316,34.271335,-120.048155,16.594,33.683,0.798,1.036
20050713,003401,1224347,34.271237,-120.048330,16.587,33.687,0.853,1.135
20050713,003430,1224375,34.271153,-120.048533,16.567,33.697,0.798,1.025
20050713,003501,1224407,34.271058,-120.048772,16.578,33.683,0.836,1.106
20050713,003530,1224436,34.271003,-120.049013,16.580,33.682,0.880,1.185
20050713,003600,1224466,34.270960,-120.049247,16.578,33.683,0.869,1.164
20050713,003630,1224496,34.270905,-120.049482,16.576,33.686,0.847,1.128
20050713,003700,1224526,34.270857,-120.049710,16.581,33.681,0.923,1.285
20050713,003730,1224555,34.270775,-120.049897,16.578,33.687,0.858,1.163
20050713,003800,1224586,34.270693,-120.050067,16.574,33.686,0.836,1.120
20050713,003830,1224616,34.270592,-120.050217,16.574,33.685,0.880,1.197
20050713,003900,1224646,34.270525,-120.050400,16.565,33.691,0.880,1.207
20050713,003930,1224676,34.270482,-120.050607,16.549,33.696,0.825,1.112
20050713,004000,1224705,34.270432,-120.050843,16.540,33.693,0.842,1.142
20050713,004030,1224735,34.270380,-120.051083,16.542,33.688,0.858,1.149
20050713,004101,1224767,34.270297,-120.051275,16.513,33.704,0.825,1.069
20050713,004130,1224796,34.270278,-120.051443,16.483,33.704,0.809,1.033
20050713,004200,1224826,34.270192,-120.051593,16.451,33.706,0.782,0.978
20050713,004230,1224856,34.270132,-120.051795,16.464,33.677,0.755,0.927
20050713,004301,1224887,34.270052,-120.052023,16.477,33.674,0.842,1.083
20050713,004330,1224915,34.270008,-120.052267,16.472,33.686,0.831,1.067
20050713,004400,1224946,34.269940,-120.052492,16.465,33.690,0.858,1.121
20050713,004430,1224976,34.269878,-120.052685,16.451,33.694,0.782,0.978
20050713,004500,1225006,34.269788,-120.052870,16.439,33.696,0.793,0.990
20050713,004530,1225035,34.269688,-120.053088,16.420,33.699,0.755,0.922
20050713,004601,1225067,34.269600,-120.053350,16.426,33.684,0.793,0.990
20050713,004631,1225097,34.269548,-120.053572,16.441,33.675,0.804,1.007
20050713,004700,1225126,34.269482,-120.053783,16.447,33.681,0.804,1.007
20050713,004730,1225156,34.269430,-120.053997,16.449,33.680,0.815,1.035
20050713,004801,1225187,34.269363,-120.054182,16.454,33.681,0.831,1.074
20050713,004830,1225215,34.269280,-120.054355,16.456,33.681,0.874,1.149
20050713,004901,1225247,34.269212,-120.054508,16.455,33.687,0.977,1.341
20050713,004931,1225277,34.269147,-120.054680,16.474,33.672,0.977,1.343
20050713,005001,1225306,34.269080,-120.054883,16.524,33.650,1.015,1.422
20050713,005031,1225336,34.269022,-120.055113,16.543,33.663,1.101,1.592
20050713,005100,1225366,34.268895,-120.055403,16.539,33.680,1.090,1.575
20050713,005131,1225397,34.268782,-120.055872,16.531,33.686,1.058,1.515
20050713,005201,1225427,34.268678,-120.056313,16.521,33.692,1.042,1.475
20050713,005231,1225456,34.268547,-120.056710,16.529,33.681,1.047,1.495
20050713,005301,1225486,34.268467,-120.057052,16.488,33.711,1.047,1.530
20050713,005331,1225517,34.268400,-120.057377,16.445,33.711,0.961,1.374
20050713,005401,1225547,34.268298,-120.057648,16.491,33.670,1.031,1.501
20050713,005430,1225575,34.268232,-120.057917,16.505,33.670,1.074,1.574
20050713,005500,1225606,34.268158,-120.058185,16.505,33.678,1.047,1.496
20050713,005531,1225636,34.268100,-120.058457,16.510,33.680,1.085,1.550
20050713,005601,1225666,34.268037,-120.058717,16.526,33.671,1.031,1.418
20050713,005631,1225697,34.267992,-120.058960,16.557,33.664,1.144,1.642
20050713,005701,1225727,34.267908,-120.059195,16.547,33.682,1.107,1.571
20050713,005731,1225757,34.267827,-120.059412,16.543,33.684,1.182,1.727
20050713,005801,1225787,34.267755,-120.059660,16.552,33.678,1.128,1.608
20050713,005831,1225816,34.267633,-120.059995,16.577,33.667,1.203,1.758
20050713,005901,1225847,34.267542,-120.060400,16.592,33.668,1.241,1.838
20050713,005931,1225877,34.267410,-120.060825,16.576,33.689,1.300,1.966
20050713,005959,1225905,34.267320,-120.061220,16.520,33.713,1.171,1.699
20050713,010031,1225937,34.267227,-120.061567,16.529,33.681,1.117,1.606
20050713,010101,1225966,34.267152,-120.061887,16.581,33.648,1.225,1.852
20050713,010131,1225996,34.267087,-120.062168,16.618,33.651,1.295,2.004
20050713,010201,1226027,34.267043,-120.062433,16.603,33.682,1.246,1.865
20050713,010231,1226057,34.266965,-120.062668,16.550,33.717,1.225,1.814
20050713,010301,1226087,34.266898,-120.062905,16.571,33.678,1.187,1.752
20050713,010331,1226117,34.266853,-120.063148,16.618,33.649,1.257,1.922
20050713,010401,1226146,34.266760,-120.063370,16.639,33.660,1.332,2.088
20050713,010431,1226176,34.266683,-120.063603,16.660,33.663,1.257,1.905
20050713,010501,1226207,34.266593,-120.063810,16.671,33.669,1.353,2.097
20050713,010532,1226237,34.266508,-120.064027,16.675,33.675,1.310,1.987
20050713,010601,1226267,34.266422,-120.064205,16.676,33.678,1.305,1.962
20050713,010631,1226296,34.266335,-120.064382,16.677,33.681,1.353,2.069
20050713,010701,1226326,34.266262,-120.064537,16.682,33.680,1.337,2.035
20050713,010731,1226357,34.266187,-120.064685,16.686,33.678,1.353,2.070
20050713,010801,1226387,34.266113,-120.064875,16.686,33.678,1.391,2.159
20050713,010831,1226417,34.266015,-120.065060,16.698,33.673,1.359,2.095
20050713,010901,1226447,34.265928,-120.065270,16.707,33.670,1.407,2.199
20050713,010931,1226476,34.265848,-120.065500,16.705,33.680,1.460,2.324
20050713,011001,1226506,34.265742,-120.065715,16.693,33.686,1.386,2.162
20050713,011031,1226537,34.265668,-120.065923,16.686,33.685,1.386,2.158
20050713,011101,1226567,34.265577,-120.066098,16.690,33.683,1.418,2.221
20050713,011131,1226597,34.265532,-120.066287,16.686,33.685,1.391,2.143
20050713,011201,1226627,34.265448,-120.066470,16.672,33.691,1.380,2.105
20050713,011231,1226656,34.265325,-120.066653,16.662,33.689,1.332,1.996
20050713,011301,1226686,34.265237,-120.066832,16.656,33.686,1.418,2.184
20050713,011332,1226717,34.265127,-120.066990,16.649,33.686,1.332,2.004
20050713,011401,1226747,34.265050,-120.067128,16.649,33.681,1.386,2.123
20050713,011431,1226777,34.264992,-120.067282,16.653,33.678,1.369,2.090
20050713,011501,1226806,34.264895,-120.067433,16.655,33.681,1.476,2.329
20050713,011531,1226836,34.264805,-120.067637,16.654,33.680,1.364,2.076
20050713,011601,1226867,34.264715,-120.067880,16.654,33.681,1.359,2.067
20050713,011631,1226897,34.264628,-120.068117,16.655,33.681,1.434,2.224
20050713,011701,1226927,34.264562,-120.068343,16.649,33.685,1.327,1.977
20050713,011731,1226957,34.264498,-120.068560,16.641,33.688,1.332,1.982
20050713,011801,1226986,34.264417,-120.068778,16.635,33.685,1.369,2.063
20050713,011831,1227016,34.264315,-120.068975,16.607,33.696,1.289,1.896
20050713,011901,1227047,34.264243,-120.069170,16.625,33.674,1.364,2.056
20050713,011931,1227077,34.264133,-120.069425,16.636,33.674,1.428,2.199
20050713,012001,1227107,34.264028,-120.069695,16.641,33.677,1.476,2.311
20050713,012031,1227137,34.263948,-120.069885,16.641,33.679,1.434,2.212
20050713,012102,1227168,34.263858,-120.070013,16.638,33.681,1.396,2.129
20050713,012131,1227197,34.263800,-120.070187,16.633,33.682,1.380,2.092
20050713,012201,1227227,34.263700,-120.070387,16.632,33.682,1.327,1.970
20050713,012231,1227257,34.263598,-120.070615,16.632,33.682,1.348,2.020
20050713,012301,1227287,34.263465,-120.070868,16.634,33.679,1.321,1.967
20050713,012331,1227316,34.263347,-120.071153,16.634,33.681,1.401,2.128
20050713,012401,1227346,34.263257,-120.071447,16.639,33.677,1.332,1.984
20050713,012432,1227378,34.263130,-120.071757,16.638,33.681,1.327,1.982
20050713,012502,1227407,34.263005,-120.072037,16.623,33.688,1.310,1.940
20050713,012532,1227437,34.262917,-120.072272,16.614,33.688,1.380,2.075
20050713,012602,1227468,34.262842,-120.072460,16.602,33.688,1.359,2.020
20050713,012632,1227498,34.262770,-120.072715,16.581,33.696,1.241,1.774
20050713,012702,1227528,34.262728,-120.073042,16.567,33.694,1.262,1.818
20050713,012731,1227557,34.262673,-120.073412,16.560,33.686,1.235,1.765
20050713,012802,1227587,34.262633,-120.073792,16.569,33.675,1.268,1.835
20050713,012832,1227618,34.262575,-120.074188,16.590,33.666,1.332,1.975
20050713,012902,1227648,34.262473,-120.074578,16.603,33.666,1.348,2.014
20050713,012931,1227676,34.262360,-120.074948,16.619,33.666,1.434,2.209
20050713,013002,1227708,34.262180,-120.075322,16.626,33.673,1.428,2.223
20050713,013032,1227737,34.262087,-120.075705,16.632,33.670,1.391,2.133
20050713,013102,1227767,34.262047,-120.076082,16.631,33.680,1.471,2.293
20050713,013132,1227798,34.262137,-120.076443,16.619,33.686,1.481,2.304
20050713,013202,1227828,34.262300,-120.076757,16.613,33.684,1.444,2.217
20050713,013232,1227858,34.262457,-120.077097,16.608,33.684,1.439,2.196
20050713,013302,1227888,34.262578,-120.077467,16.602,33.683,1.412,2.128
20050713,013332,1227917,34.262753,-120.077950,16.598,33.683,1.481,2.283
20050713,013402,1227947,34.263072,-120.078713,16.592,33.684,1.428,2.169
20050713,013432,1227978,34.263498,-120.079642,16.570,33.691,1.434,2.175
20050713,013502,1228008,34.263895,-120.080558,16.561,33.688,1.369,2.029
20050713,013532,1228038,34.264320,-120.081543,16.564,33.680,1.418,2.125
20050713,013602,1228067,34.264742,-120.082528,16.543,33.694,1.418,2.124
20050713,013632,1228097,34.265167,-120.083517,16.508,33.702,1.407,2.101
20050713,013703,1228129,34.265610,-120.084540,16.526,33.676,1.359,2.006
20050713,013732,1228158,34.266027,-120.085503,16.597,33.638,1.476,2.271
20050713,013803,1228188,34.266483,-120.086518,16.608,33.658,1.487,2.300
20050713,013832,1228218,34.266903,-120.087478,16.578,33.691,1.444,2.194
20050713,013902,1228247,34.267345,-120.088508,16.547,33.698,1.359,2.008
20050713,013932,1228277,34.267770,-120.089465,16.514,33.708,1.295,1.878
20050713,014002,1228308,34.268207,-120.090460,16.470,33.715,1.252,1.796
20050713,014033,1228338,34.268653,-120.091478,16.444,33.702,1.209,1.708
20050713,014102,1228368,34.269067,-120.092420,16.477,33.666,1.273,1.830
20050713,014132,1228398,34.269502,-120.093448,16.491,33.668,1.273,1.827
20050713,014203,1228429,34.269928,-120.094450,16.504,33.666,1.268,1.824
20050713,014232,1228458,34.270357,-120.095417,16.517,33.671,1.305,1.905
20050713,014303,1228488,34.270798,-120.096467,16.515,33.679,1.321,1.930
20050713,014333,1228518,34.271292,-120.097640,16.484,33.700,1.300,1.892
20050713,014402,1228548,34.271825,-120.098910,16.440,33.713,1.225,1.736
20050713,014432,1228577,34.272352,-120.100175,16.412,33.706,1.198,1.674
20050713,014502,1228607,34.272892,-120.101508,16.391,33.702,1.166,1.604
20050713,014532,1228638,34.273430,-120.102848,16.393,33.681,1.166,1.602
20050713,014602,1228668,34.273823,-120.104228,16.471,33.632,1.209,1.693
20050713,014632,1228698,34.274257,-120.105587,16.585,33.602,1.343,1.976
20050713,014702,1228728,34.274718,-120.107065,16.613,33.640,1.348,1.995
20050713,014732,1228757,34.275147,-120.108485,16.619,33.664,1.209,1.691
20050713,014802,1228787,34.275630,-120.110052,16.605,33.683,1.176,1.610
20050713,014832,1228818,34.276122,-120.111593,16.576,33.701,1.069,1.409
20050713,014902,1228848,34.276610,-120.113137,16.544,33.709,1.042,1.364
20050713,014932,1228878,34.277117,-120.114745,16.498,33.723,1.004,1.296
20050713,015002,1228907,34.277647,-120.116408,16.468,33.713,0.972,1.234
20050713,015032,1228937,34.278142,-120.117978,16.419,33.723,0.955,1.201
20050713,015102,1228968,34.278655,-120.119617,16.410,33.699,0.934,1.170
20050713,015132,1228998,34.279167,-120.121263,16.435,33.675,0.901,1.112
20050713,015202,1229028,34.279685,-120.122898,16.461,33.666,0.945,1.189
20050713,015232,1229058,34.280193,-120.124533,16.455,33.681,0.880,1.067
20050713,015302,1229087,34.280698,-120.126123,16.445,33.683,0.891,1.082
20050713,015333,1229119,34.281223,-120.127785,16.488,33.659,0.912,1.120
20050713,015402,1229148,34.281710,-120.129353,16.496,33.677,1.026,1.322
20050713,015432,1229178,34.282218,-120.130968,16.486,33.685,1.004,1.282
20050713,015502,1229208,34.282725,-120.132622,16.464,33.698,0.999,1.273
20050713,015532,1229238,34.283227,-120.134290,16.424,33.709,0.934,1.157
20050713,015602,1229267,34.283730,-120.135938,16.411,33.696,0.966,1.216
20050713,015632,1229297,34.284223,-120.137587,16.404,33.692,0.988,1.254
20050713,015703,1229328,34.284737,-120.139250,16.379,33.699,0.972,1.228
20050713,015732,1229358,34.285215,-120.140805,16.380,33.681,1.004,1.288
20050713,015803,1229389,34.285727,-120.142487,16.407,33.664,1.069,1.414
20050713,015833,1229419,34.286215,-120.144117,16.402,33.680,1.080,1.424
20050713,015903,1229449,34.286713,-120.145773,16.406,33.672,1.112,1.476
20050713,015932,1229478,34.287183,-120.147380,16.406,33.679,1.144,1.539
20050713,020003,1229508,34.287710,-120.149128,16.390,33.689,1.085,1.427
20050713,020032,1229538,34.288187,-120.150743,16.367,33.696,1.096,1.449
20050713,020102,1229568,34.288695,-120.152397,16.338,33.703,1.101,1.468
20050713,020132,1229597,34.289205,-120.154107,16.311,33.703,1.037,1.343
20050713,020202,1229627,34.289687,-120.155703,16.290,33.699,1.009,1.291
20050713,020232,1229658,34.290178,-120.157352,16.283,33.685,0.993,1.276
20050713,020303,1229688,34.290682,-120.159038,16.278,33.686,1.009,1.294
20050713,020332,1229718,34.291188,-120.160690,16.272,33.682,0.977,1.224
20050713,020402,1229748,34.291665,-120.162302,16.275,33.676,0.961,1.196
20050713,020432,1229777,34.292173,-120.164002,16.286,33.666,0.972,1.220
20050713,020502,1229808,34.292622,-120.165563,16.311,33.659,0.923,1.134
20050713,020533,1229838,34.293117,-120.167260,16.338,33.652,0.961,1.207
20050713,020602,1229868,34.293635,-120.168923,16.352,33.662,0.928,1.153
20050713,020632,1229898,34.294107,-120.170535,16.363,33.663,0.923,1.130
20050713,020702,1229927,34.294603,-120.172202,16.369,33.667,0.917,1.119
20050713,020732,1229957,34.295098,-120.173857,16.357,33.682,0.934,1.145
20050713,020802,1229988,34.295583,-120.175512,16.339,33.688,0.896,1.081
20050713,020832,1230018,34.296057,-120.177103,16.334,33.684,0.896,1.079
20050713,020903,1230048,34.296555,-120.178773,16.332,33.682,0.907,1.096
20050713,020932,1230078,34.297033,-120.180427,16.327,33.681,0.896,1.078
20050713,021002,1230107,34.297512,-120.182027,16.328,33.679,0.880,1.054
20050713,021032,1230137,34.298000,-120.183692,16.344,33.666,0.896,1.087
20050713,021102,1230168,34.298480,-120.185338,16.355,33.671,0.885,1.063
20050713,021132,1230198,34.298963,-120.186985,16.372,33.666,0.896,1.078
20050713,021202,1230228,34.299447,-120.188633,16.391,33.662,0.907,1.095
20050713,021232,1230257,34.299938,-120.190302,16.397,33.672,0.885,1.057
20050713,021302,1230287,34.300427,-120.191935,16.388,33.682,0.869,1.033
20050713,021332,1230318,34.300910,-120.193605,16.385,33.681,0.869,1.034
20050713,021403,1230348,34.301440,-120.195350,16.385,33.683,0.880,1.054
20050713,021432,1230378,34.301922,-120.196985,16.383,33.683,0.858,1.022
20050713,021502,1230408,34.302448,-120.198742,16.363,33.696,0.901,1.088
20050713,021532,1230437,34.302940,-120.200437,16.317,33.715,0.934,1.138
20050713,021602,1230467,34.303440,-120.202128,16.251,33.730,0.955,1.176
20050713,021632,1230498,34.303927,-120.203758,16.193,33.728,1.015,1.282
20050713,021703,1230528,34.304427,-120.205515,16.161,33.717,1.031,1.311
20050713,021733,1230558,34.304910,-120.207200,16.138,33.711,0.961,1.187
20050713,021802,1230588,34.305407,-120.208928,16.122,33.703,0.934,1.141
20050713,021832,1230617,34.305905,-120.210648,16.100,33.708,0.950,1.167
20050713,021902,1230647,34.306398,-120.212365,16.049,33.726,0.901,1.082
20050713,021932,1230678,34.306870,-120.214012,15.982,33.747,0.891,1.064
20050713,022002,1230708,34.307350,-120.215707,15.885,33.763,0.853,1.005
20050713,022032,1230738,34.307830,-120.217393,15.786,33.778,0.896,1.076
20050713,022102,1230767,34.308305,-120.219102,15.747,33.741,0.972,1.203
20050713,022133,1230799,34.308800,-120.220850,15.744,33.717,0.972,1.200
20050713,022202,1230828,34.309283,-120.222563,15.752,33.696,1.053,1.347
20050713,022232,1230858,34.309762,-120.224238,15.773,33.684,1.020,1.287
20050713,022303,1230888,34.310273,-120.226025,15.775,33.692,1.015,1.276
20050713,022333,1230919,34.310765,-120.227762,15.780,33.692,1.026,1.296
20050713,022402,1230947,34.311243,-120.229442,15.815,33.670,1.047,1.332
20050713,022432,1230977,34.311753,-120.231227,15.848,33.667,1.074,1.379
20050713,022503,1231008,34.312255,-120.232952,15.868,33.672,1.063,1.359
20050713,022533,1231038,34.312738,-120.234655,15.898,33.673,1.020,1.288
20050713,022603,1231069,34.313233,-120.236350,15.886,33.696,1.009,1.273
20050713,022633,1231099,34.313720,-120.238060,15.853,33.716,1.015,1.275
20050713,022703,1231129,34.314213,-120.239770,15.808,33.726,1.128,1.480
20050713,022733,1231159,34.314700,-120.241443,15.752,33.739,1.096,1.424
20050713,022803,1231188,34.315175,-120.243115,15.739,33.717,1.074,1.385
20050713,022833,1231218,34.315657,-120.244808,15.776,33.681,1.042,1.323
20050713,022903,1231249,34.316130,-120.246497,15.796,33.679,1.090,1.413
20050713,022933,1231279,34.316605,-120.248175,15.858,33.650,1.063,1.361
20050713,023003,1231309,34.317085,-120.249865,15.894,33.657,1.090,1.412
20050713,023033,1231339,34.317567,-120.251563,16.008,33.609,1.316,1.849
20050713,023104,1231370,34.318063,-120.253308,16.086,33.622,1.187,1.595
20050713,023133,1231398,34.318557,-120.255003,16.144,33.635,1.187,1.590
20050713,023203,1231429,34.319030,-120.256610,16.162,33.657,1.155,1.528
20050713,023233,1231459,34.319680,-120.258170,16.185,33.661,1.096,1.417
20050713,023303,1231489,34.320345,-120.259733,16.230,33.652,1.128,1.477
20050713,023334,1231520,34.321037,-120.261383,16.244,33.667,1.182,1.576
20050713,023404,1231550,34.321720,-120.262982,16.236,33.683,1.187,1.587
20050713,023433,1231579,34.322390,-120.264512,16.244,33.675,1.337,1.883
20050713,023503,1231609,34.323080,-120.266125,16.285,33.643,1.492,2.205
20050713,023533,1231639,34.323778,-120.267740,16.340,33.620,1.870,3.047
20050713,023603,1231669,34.324475,-120.269343,16.351,33.632,1.907,3.136
20050713,023634,1231700,34.325187,-120.270978,16.332,33.647,1.902,3.127
20050713,023703,1231728,34.325862,-120.272510,16.311,33.650,1.949,3.248
20050713,023733,1231759,34.326597,-120.274147,16.307,33.634,1.854,3.009
20050713,023803,1231789,34.327247,-120.275588,16.313,33.622,2.002,3.364
20050713,023833,1231819,34.327933,-120.277138,16.317,33.616,1.949,3.226
20050713,023903,1231849,34.328627,-120.278692,16.295,33.632,1.917,3.146
20050713,023933,1231878,34.329357,-120.280338,16.294,33.619,1.923,3.167
20050713,024003,1231908,34.330020,-120.281852,16.258,33.636,1.933,3.194
20050713,024033,1231939,34.330713,-120.283435,16.239,33.631,1.949,3.221
20050713,024103,1231969,34.331408,-120.285032,16.215,33.636,1.933,3.184
20050713,024133,1231999,34.332088,-120.286628,16.165,33.653,1.997,3.340
20050713,024203,1232028,34.332772,-120.288205,16.105,33.663,1.992,3.334
20050713,024234,1232060,34.333485,-120.289878,16.077,33.652,1.928,3.185
20050713,024303,1232089,34.334165,-120.291422,16.058,33.645,2.039,3.445
20050713,024333,1232119,34.334883,-120.293063,16.078,33.621,1.965,3.279
20050713,024403,1232149,34.335535,-120.294565,16.042,33.652,1.880,3.071